Location: Unspecified
(41.5000°N, 0.0000°E)
Time: 12:47:28
(UTC+00:00)

Vanguard 3 - Pass Details

Date: 18 June 2019
Orbit: 508 x 3263 km, 33.3° (Epoch: 16 August)

Event Time Altitude Azimuth Distance (km) Brightness Sun altitude
Rises 10:21:56 0° 208° (SSW) 6,340 11.7 62.5°
Reaches altitude 10° 10:28:22 10° 193° (SSW) 4,780 11.4 63.5°
Maximum altitude 10:35:55 18° 157° (SSE) 3,380 11.0 64.6°
Drops below altitude 10° 10:41:28 10° 117° (ESE) 3,367 10.8 65.4°
Sets 10:44:53 0° 99° (E) 3,929 10.9 65.9°
